Find Starlink 5536

NORAD ID: 57062 Int'l Des: 2023-088 Owner: SPXS Country: US Constellation: starlink operational
LEOCIRCULAR

Current View

Loading 3D Globe...

About Starlink 5536

Starlink 5536 (NORAD 57062) is a starlink constellation satellite (v1.5) launched Jun 22, 2023 by SPXS of US. It operates in LEO, CIRCULAR orbit with a mass of 305.00 kg.

Upcoming Passes

Passes for default location (London). Set your location on the main map for personalized predictions.

Altitude History

Loading altitude history...

Two-Line Element Set

1 57062U 23088Q 26234.72915900 -.00000055 00000-0 75328-5 0 9992
2 57062 43.0029 238.4323 0001334 287.4437 72.6269 15.27575309175897
Epoch: Aug 22, 2026 • Age: 38 hours

Current Status

Altitude 486.6 km
Apogee / Perigee N/A
Velocity 7.63 km/s
Sub-Earth Point 40.66°N, 103.96°W
Launch Date Jun 22, 2023
Age 3.1 years
Type internet

Technical Details

Classification Payload
Mass 305.00 kg
Dry Mass 290.00 kg
Total Mass 305.00 kg
Length 0.20 m
Diameter 2.80 m
Span 9.00 m
Shape Box + pan
Manufacturer SPXS
Bus Type Starlink
Phase Status In Orbit
Owner/State SPXS/US

Most Searched